Weather in Veszprém

Hungary     47°05′33″N   17°54′27″E
temp.,
°C
wind,
m/s
gust,
m/s
humid.,
%
clouds,
%
prec.,
mm/h
press.,
hPa
HPBL,
m
10 april, sat
sat1023:00+8ssw51166100 0.0 1021356
02:00+8ssw6135797 0.0 1020599
05:00+6ssw59725 0.0 1020276
08:00+7ssw59705 0.0 1020493
11:00+12sw57575 0.0 1020818
14:00+15sw7846100 0.0 10191104
17:00+14sw6847100 0.0 10191062
20:00+11ssw496352 0.0 1019186
11 april, sun
sun1123:00+8s48745 0.0 1020186
02:00+6s3682100 0.0 1020128
05:00+7s49755 0.0 1020198
08:00+9sse276774 0.0 1020256
11:00+14ssw5851100 0.0 1020847
14:00+12ssw6955100 0.0 1019744
17:00+14s69497 0.0 10181189
20:00+11s511645 0.0 1018269
12 april, mon
mon1223:00+11s5136040 0.0 1018494
02:00+9s51278100 0.0 1017325
05:00+8s488412 0.0 1017247
08:00+11ssw512725 0.0 1017547
11:00+15ssw7105915 0.0 1016781
14:00+18ssw695181 0.0 10161297
17:00+15ssw4860100 0.0 1015490
20:00+12w4987100 0.3 1016296
13 april, tue
tue1323:00+12wsw2582100 0.1 1016147
02:00+5nnw91581100 0.7 1018461
05:00+4nnw111786100 0.0 1018488
08:00+3nnw101694100 0.1 1018520
11:00+3nnw111689100 2.3 1018538
14:00+2nnw132089100 5.1 1018621
17:00+2nnw132090100 1.3 1018777
20:00+2nnw111895100 1.3 10191002
14 april, wed
wed1423:00+2nnw91795100 0.2 10191023
02:00+2nnw101895100 0.6 1019958
05:00+2nnw111793100 0.3 1018965
08:00+3nnw101685100 0.5 10191091
11:00+6nnw111568100 0.0 10191452
14:00+8nnw111453100 0.1 10191900
17:00+8nnw91454100 0.0 10191938
20:00+6nnw91560100 0.0 10201132